User: anonymous   Login
Location: Unspecified
(0.0000°N, 0.0000°E)
Time: 13:48:15
(UTC+00:00)
Language:

OBJECT AA - Orbit

View from above orbital plane
View from above orbital plane
View from above satellite
View from above satellite

Ground track
Ground track

The orbit data is extracted from the following two-line orbital elements,

1 43135U 18004AA  19047.76356701  .00001148  00000-0  51263-4 0  9990
2 43135  97.5036 115.8175 0008698 331.9045  28.1721 15.23408404 60943
Epoch (UTC): 16 February 2019 18:19:32
Eccentricity: 0.0008698
inclination: 97.5036°
perigee height: 489 km
apogee height: 501 km
right ascension of ascending node: 115.8175°
argument of perigee: 331.9045°
revolutions per day: 15.23408404
mean anomaly at epoch: 28.1721°
orbit number at epoch: 6094

The dashed part of the orbit path shows where the satellite is in the earth's shadow,  

DLR